Weather Roundup
Issued by NWS Corpus Christi, TX

Home | Current Version | Previous Version | Text Only | Print | Product List | Glossary On
Versions: 1 2 3 4 5 6 7 8 9 10 11 12 13 14 15 16 17 18 19 20 21 22 23 24 25 26 27 28 29 30 31 32 33 34 35 36 37 38 39 40 41 42 43 44 45 46 47 48 49 50
000
ASUS44 KCRP 200110
HRRCRP

SOUTH TEXAS REGIONAL WEATHER ROUNDUP
NATIONAL WEATHER SERVICE CORPUS CHRISTI TX
800 PM CDT SAT APR 19 2014


TXZ229>244-200200-
...CORPUS CHRISTI AREA OBSERVATIONS...

CITY           SKY/WX    TMP DP  RH WIND       PRES   REMARKS
CORPUS CHRISTI MOCLDY    71  61  70 SE13      30.08R
NAS CORPUS CHR PTCLDY    70  64  81 SE14      30.08S
ROCKPORT       PTCLDY    70  63  78 SE12      30.09S
KINGSVILLE NAS CLOUDY    71  63  75 SE14      30.06F
ALICE          CLOUDY    72  60  66 SE15      30.06R
FALFURRIAS     CLOUDY    73  62  69 SE12G18   30.05R
$$

...VICTORIA AREA OBSERVATIONS...

CITY           SKY/WX    TMP DP  RH WIND       PRES   REMARKS
VICTORIA       PTCLDY    71  58  63 SE9       30.09R
BEEVILLE       FAIR      72  59  64 SE12G17   30.07S
PLEASANTON     MOCLDY    75  55  48 SE13G18   30.05S
SAN ANTONIO    CLOUDY    76  54  46 SE21      30.04F
$$

...LAREDO AREA OBSERVATIONS...

CITY           SKY/WX    TMP DP  RH WIND       PRES   REMARKS
LAREDO         CLOUDY    77  61  57 SE16      30.04R
COTULLA        CLOUDY    77  56  48 SE15G24   30.01S
DEL RIO        CLOUDY    76  51  41 SE15G23   29.96F
MCALLEN        CLOUDY    75  63  66 SE16      30.04R
HEBBRONVILLE   CLOUDY    73  60  63 E14       30.06S
$$

...OTHER TEXAS OBSERVATIONS...

CITY           SKY/WX    TMP DP  RH WIND       PRES   REMARKS
BROWNSVILLE    MOCLDY    72  65  78 SE9       30.06S
HOUSTON        PTCLDY    70  57  63 SE10      30.10R
COL. STATION   MOCLDY    73  56  54 CALM      30.08F
AUSTIN         CLOUDY    72  57  59 SE5       30.05F
WACO           CLOUDY    69  55  60 SE7       30.08F
FORT WORTH     MOCLDY    72  52  49 SE9       30.08S
WICHITA FALLS  CLEAR     72  49  44 SE14      30.04F
LUBBOCK        CLOUDY    61  56  83 N5        30.04S
EL PASO        CLOUDY    59  50  72 NW13      30.07R
$$

...MARINE OBSERVATIONS...

STATION/POSITION TIME  SKY/WX   TEMP    WIND        PRES    VSBY  WAVE   SWELL
                                AIR SEA DIR/SP/G                  HT/PER HT/PER
                 (UTC)          (F)     (DEG/KT/KT) (MB)    (MI)  (FT/S) (FT/S)
PORT ARANSAS     0100            68 69  110/  9/ 10 1019.0S
BUOY 90 E PORT A NOT AVBL
BUOY 45 SE BAFFI 0100            69 68  120/ 10/ 12 1018.7R         3/ 8   2/ 8
BUOY 200 E PT IS NOT AVBL
BUOY 15 E GALVES 0100            67 67  130/  6/  8 1019.6R         2/ 4   2/ 4
$$



USA.gov is the U.S. government's official web portal to all federal, state and local government web resources and services.